{"data":{"norad_id":56866,"intl_designator":"2023-081W","name":"2023-081W","alt_names":[],"object_type":"PAYLOAD","status":"ACTIVE","operator":null,"country":"PRC","launch_date":"2023-06-07","launch_site_code":"JSC","launch_vehicle":null,"mission":null,"orbit_class":"UNKNOWN","rcs_meters":null,"size_class":null,"mass_kg":null,"dimensions":null,"purposes":[],"wikipedia_slug":null,"has_3d_model":false,"image_url":null,"decayed_at":null,"tle_current":{"epoch":"2026-09-22T21:05:52.482624Z","epoch_age_seconds":85844,"freshness":"FRESH","line1":"1 56866U 23081W   26265.87907966  .00003998  00000+0  15846-3 0  9993","line2":"2 56866  97.2804 326.8657 0011134  34.7089 325.4874 15.25906440182922","mean_motion":15.2590644,"eccentricity":0.0011134,"inclination_deg":97.2804,"raan_deg":326.8657,"arg_perigee_deg":34.7089,"mean_anomaly_deg":325.4874,"bstar":0.00015846,"rev_number":18292,"period_min":94.370137136324,"perigee_km":480.42008709386,"apogee_km":495.7097455211,"semimajor_km":6866.2019163075,"source":"CELESTRAK","updated_at":"2026-09-23T09:00:17.926938Z"}}}